[[{"header":{"parameterUnit":"m.s-1","parameterCategory":1,"la1":30.2991,"la2":30.254,"lo1":-89.0895,"lo2":-89.0444,"dy":0.0017,"dx":0.0017,"nx":28,"ny":28,"refTime":"2025-02-02T09:00:00:Z","depth":0,"parameterNumber":2,"parameterNumberName":"U-component_of_WINDS"},"data":[0,0,0,0,0,0,0,0,0,0,0,0,0,0,0,0,0,0,0,0,0,0,0,0,0,0,0,0,0,0,0,0,0,0,0,0,0,0,0,0,0,0,0,0,0,0,0,0,0,0,0,0,0,0,0,0,0,0,-2.2585,-2.2585,0,-2.2625,-2.2626,-2.2626,-2.2589,-2.2588,-2.2586,-2.2585,-2.2625,-2.2627,-2.263,0,0,0,0,0,0,0,0,0,0,0,0,0,-2.2475,-2.2477,-2.2584,-2.2585,-2.2586,-2.2625,-2.2626,-2.2626,-2.259,-2.2588,-2.2586,-2.2584,-2.2624,-2.2627,-2.263,0,0,0,0,0,0,0,0,0,0,0,0,0,-2.252,-2.2478,-2.2584,-2.2572,-2.2571,-2.2625,-2.2626,-2.2626,-2.259,-2.2588,-2.2585,-2.2583,-2.2623,-2.2627,-2.263,-2.2698,0,0,-2.2642,-2.2643,0,0,0,0,0,0,0,0,-2.2517,-2.2524,-2.2573,-2.2573,-2.2572,-2.26,-2.2601,-2.265,-2.259,-2.2583,-2.2585,-2.2582,-2.2618,-2.2622,-2.2635,-2.2699,-2.2701,-2.2642,-2.2644,-2.2646,-2.2647,0,0,0,0,0,0,0,-2.2514,-2.2522,-2.26,-2.2574,-2.2574,-2.2564,-2.2568,-2.2611,-2.2612,-2.2583,-2.2581,-2.2586,-2.2617,-2.2631,-2.2635,-2.2702,-2.2642,-2.2645,-2.2647,-2.2649,-2.2824,-2.2826,0,0,0,0,0,0,-2.2512,-2.2519,-2.2599,-2.2602,-2.2539,-2.2568,-2.2572,-2.2593,-2.2612,-2.2613,-2.2588,-2.2584,-2.2626,-2.2631,-2.2637,-2.2716,-2.2646,-2.2649,-2.2651,-2.2821,-2.2824,-2.2827,0,0,0,0,0,0,-2.251,-2.252,-2.2598,-2.256,-2.2569,-2.2572,-2.2596,-2.2595,-2.2609,-2.2616,-2.2616,-2.2602,-2.2624,-2.2631,-2.2683,-2.2717,-2.2651,-2.2654,-2.2819,-2.2822,-2.2826,-2.2877,0,0,0,0,0,0,-2.2507,-2.2519,-2.2545,-2.2561,-2.2571,-2.2643,-2.2598,-2.2598,-2.2615,-2.2611,-2.2628,-2.2629,-2.2623,-2.2678,-2.2686,-2.2721,-2.2657,-2.2815,-2.282,-2.2825,-2.2872,-2.2881,-2.289,0,0,0,0,0,-2.2503,-2.2557,-2.2546,-2.2556,-2.2603,-2.2646,-2.2651,-2.2644,-2.2618,-2.2644,-2.2649,-2.2628,-2.2712,-2.2683,-2.2693,-2.2729,-2.2813,-2.2819,-2.2824,-2.2868,-2.288,-2.289,0,0,0,0,0,0,-2.2544,-2.2559,-2.2547,-2.2608,-2.2626,-2.2639,-2.2671,-2.2657,-2.2682,-2.2677,-2.2666,-2.2671,-2.2725,-2.2732,-2.2699,-2.2795,-2.2759,-2.2766,-2.2788,-2.28,-2.2808,-2.2805,-2.266,0,0,0,0,0,-2.2561,-2.2594,-2.2605,-2.2657,-2.2667,-2.2668,-2.2686,-2.2679,-2.2697,-2.2704,-2.2712,-2.273,-2.276,-2.2781,-2.2809,-2.2873,-2.2876,-2.2903,-2.2912,-2.2919,-2.2926,-2.296,-2.2972,-2.2845,-2.2845,-2.2845,0,0,-2.2594,-2.2606,-2.2628,-2.2666,-2.2679,-2.2713,-2.2674,-2.2712,-2.2738,-2.271,-2.2759,-2.2766,-2.2785,-2.2843,-2.2869,-2.2851,-2.2962,-2.2926,-2.2932,-2.2935,-2.2967,-2.2979,-2.299,-2.2849,-2.2848,-2.2848,0,0,-2.2673,-2.2686,-2.2731,-2.2745,-2.2766,-2.2766,-2.2777,-2.2793,-2.2797,-2.2846,-2.2826,-2.2856,-2.2909,-2.2923,-2.2938,-2.3024,-2.3006,-2.3033,-2.308,-2.3113,-2.3123,-2.3132,-2.3162,-2.3173,-2.304,-2.304,-2.304,0,-2.2712,-2.2763,-2.2756,-2.2795,-2.2813,-2.279,-2.2836,-2.285,-2.2878,-2.2891,-2.287,-2.2936,-2.2948,-2.3009,-2.303,-2.3043,-2.3054,-2.303,-2.3123,-2.3132,-2.314,-2.3168,-2.318,-2.3043,-2.3043,-2.3042,-2.3042,0,-2.281,-2.2846,-2.288,-2.2909,-2.293,-2.2973,-2.2971,-2.2994,-2.2986,-2.2988,-2.3039,-2.3052,-2.3083,-2.3097,-2.3089,-2.3158,-2.3146,-2.3124,-2.3087,-2.3155,-2.3182,-2.3193,-2.3048,-2.3046,-2.3045,-2.3045,0,0,-2.2914,-2.2939,-2.2952,-2.2965,-2.2987,-2.3014,-2.3056,-2.3087,-2.3106,-2.3127,-2.3162,-2.3207,-2.3188,-2.3204,-2.3198,-2.3228,-2.3295,-2.3203,-2.3203,-2.3219,-2.3371,-2.3386,-2.3399,-2.3284,-2.3286,-2.3287,-2.3369,0,-2.2993,-2.3065,-2.306,-2.3129,-2.3162,-2.3142,-2.3178,-2.3195,-2.3199,-2.3228,-2.3232,-2.3264,-2.3237,-2.3247,-2.3275,-2.328,-2.3325,-2.3275,-2.3315,-2.3316,-2.331,-2.3413,-2.3429,-2.3505,-2.3379,-2.3381,-2.3382,0,-2.3094,-2.3119,-2.3191,-2.3209,-2.3222,-2.3255,-2.3283,-2.3311,-2.333,-2.3331,-2.335,-2.3339,-2.3381,-2.3344,-2.3402,-2.3368,-2.3384,-2.3389,-2.3392,-2.3394,-2.3353,-2.3417,-2.3529,-2.354,-2.3399,-2.3397,-2.3396,0,-2.3162,-2.3214,-2.3264,-2.3276,-2.3298,-2.3321,-2.3331,-2.3349,-2.3368,-2.3392,-2.3404,-2.3434,-2.3449,-2.3472,-2.3469,-2.3442,-2.3527,-2.349,-2.3529,-2.3529,-2.3546,-2.3545,-2.3661,-2.3559,-2.3559,-2.3558,-2.3558,0,-2.325,-2.3294,-2.3295,-2.3325,-2.3375,-2.3369,-2.3418,-2.3425,-2.3441,-2.3473,-2.3457,-2.3487,-2.3482,-2.3512,-2.351,-2.3557,-2.3565,-2.3566,-2.3565,-2.3567,-2.3567,-2.3577,-2.3571,-2.3561,-2.3561,-2.356,-2.356,0,-2.3333,-2.3335,-2.3388,-2.3405,-2.341,-2.3446,-2.346,-2.3489,-2.3492,-2.3533,-2.3542,-2.3547,-2.3581,-2.3581,-2.362,-2.3618,-2.3677,-2.367,-2.367,-2.3669,-2.3707,-2.3703,-2.3833,-2.3849,-2.3737,-2.3738,-2.3739,0,-2.3388,-2.3422,-2.3443,-2.3464,-2.3476,-2.3508,-2.3528,-2.3524,-2.3545,-2.3571,-2.3596,-2.363,-2.3656,-2.3712,-2.3718,-2.3748,-2.3741,-2.3785,-2.3746,-2.3747,-2.3741,-2.3739,-2.3742,-2.3792,-2.3793,-2.3794,-2.3795,0,-2.3486,-2.3486,-2.3515,-2.3545,-2.3569,-2.3593,-2.3614,-2.3631,-2.363,-2.3655,-2.369,-2.371,-2.3751,-2.3784,-2.3813,-2.3823,-2.3809,-2.3808,-2.3818,-2.382,-2.3819,-2.3819,-2.369,-2.3805,-2.3804,-2.3803,-2.3802,-2.3802,-2.3557,-2.3586,-2.3606,-2.3639,-2.3655,-2.3676,-2.3704,-2.3711,-2.3741,-2.3774,-2.377,-2.3809,-2.3828,-2.3866,-2.3879,-2.3909,-2.3894,-2.3909,-2.3913,-2.3917,-2.3921,-2.3815,-2.3915,-2.3915,-2.3914,-2.3914,-2.3914,0,-2.3653,-2.3665,-2.3696,-2.3727,-2.3753,-2.3739,-2.3762,-2.3785,-2.382,-2.384,-2.3866,-2.3907,-2.3939,-2.3949,-2.398,-2.4003,-2.3997,-2.4011,-2.4009,-2.4011,-2.3933,-2.392,-2.4015,-2.4015,-2.4015,-2.4015,-2.4015,-2.4015,-2.3707,-2.3756,-2.3758,-2.3815,-2.3826,-2.3865,-2.388,-2.3899,-2.3914,-2.3961,-2.3988,-2.3994,-2.401,-2.4043,-2.4072,-2.4074,-2.4085,-2.4102,-2.4101,-2.4027,-2.4017,-2.4007,-2.3995,-2.4105,-2.4105,-2.4177,-2.4178,-2.4178]},{"header":{"parameterUnit":"m.s-1","parameterCategory":1,"la1":30.2991,"la2":30.254,"lo1":-89.0895,"lo2":-89.0444,"dy":0.0017,"dx":0.0017,"nx":28,"ny":28,"refTime":"2025-02-02T09:00:00:Z","depth":0,"parameterNumber":3,"parameterNumberName":"V-component_of_WINDS"},"data":[0,0,0,0,0,0,0,0,0,0,0,0,0,0,0,0,0,0,0,0,0,0,0,0,0,0,0,0,0,0,0,0,0,0,0,0,0,0,0,0,0,0,0,0,0,0,0,0,0,0,0,0,0,0,0,0,0,0,1.1081,1.1082,0,1.114,1.114,1.1141,1.1169,1.1169,1.1169,1.1169,1.1225,1.1227,1.1228,0,0,0,0,0,0,0,0,0,0,0,0,0,1.0992,1.0993,1.1081,1.1082,1.1083,1.114,1.114,1.1141,1.1169,1.1169,1.1169,1.1169,1.1225,1.1227,1.1228,0,0,0,0,0,0,0,0,0,0,0,0,0,1.1038,1.0994,1.1081,1.1103,1.1106,1.1139,1.114,1.1141,1.1169,1.1169,1.1169,1.1169,1.1224,1.1226,1.1229,1.1243,0,0,1.1236,1.1237,0,0,0,0,0,0,0,0,1.1036,1.1041,1.1099,1.1102,1.1105,1.1147,1.113,1.1175,1.1169,1.1145,1.1169,1.1169,1.1199,1.1203,1.1214,1.1246,1.1249,1.1236,1.1237,1.1238,1.1239,0,0,0,0,0,0,0,1.1032,1.1039,1.1104,1.11,1.1103,1.111,1.1116,1.1138,1.1171,1.1147,1.1149,1.1156,1.12,1.1212,1.1216,1.1249,1.1236,1.1238,1.1239,1.124,1.1298,1.1298,0,0,0,0,0,0,1.1026,1.1036,1.1102,1.1106,1.1069,1.1111,1.1119,1.1133,1.1171,1.1177,1.1156,1.1157,1.1208,1.1213,1.1218,1.1239,1.1238,1.124,1.1242,1.1298,1.1298,1.1298,0,0,0,0,0,0,1.1024,1.1031,1.11,1.1072,1.1081,1.1113,1.1129,1.1134,1.1146,1.1178,1.1184,1.1162,1.1208,1.1215,1.1238,1.1241,1.1241,1.1244,1.1298,1.1298,1.1298,1.128,0,0,0,0,0,0,1.1021,1.103,1.1037,1.1072,1.1082,1.1119,1.1129,1.1136,1.115,1.1152,1.1185,1.119,1.1209,1.1234,1.124,1.1244,1.1245,1.1297,1.1298,1.1298,1.1281,1.128,1.1279,0,0,0,0,0,1.1018,1.1028,1.1037,1.1045,1.1091,1.1119,1.1125,1.1147,1.1151,1.1157,1.1178,1.1189,1.124,1.1236,1.1243,1.1248,1.1297,1.1298,1.1298,1.1281,1.128,1.1279,0,0,0,0,0,0,1.0991,1.1033,1.1043,1.1065,1.1089,1.1124,1.1132,1.1145,1.1167,1.1168,1.1194,1.1201,1.1221,1.1237,1.1232,1.1265,1.127,1.1271,1.1254,1.1254,1.1253,1.1249,1.1247,0,0,0,0,0,1.0988,1.1008,1.1044,1.106,1.1071,1.11,1.1113,1.1128,1.1153,1.1162,1.1185,1.1207,1.1229,1.1242,1.1263,1.1283,1.1291,1.129,1.1289,1.1289,1.129,1.1303,1.1303,1.1299,1.1299,1.1299,0,0,1.0981,1.1007,1.1018,1.1055,1.1075,1.1095,1.1108,1.1128,1.1143,1.1165,1.1189,1.1206,1.1233,1.1255,1.1266,1.1269,1.1293,1.1289,1.1288,1.129,1.1303,1.1304,1.1304,1.13,1.13,1.13,0,0,1.098,1.1001,1.1018,1.1038,1.1069,1.1088,1.1092,1.1126,1.1138,1.1163,1.118,1.1198,1.1234,1.1253,1.1268,1.1276,1.1287,1.1282,1.1278,1.129,1.129,1.1291,1.1294,1.1295,1.1283,1.1283,1.1283,0,1.0968,1.0999,1.1024,1.1044,1.1061,1.1083,1.11,1.1118,1.1154,1.1164,1.1167,1.1214,1.1234,1.1261,1.1264,1.1274,1.128,1.1278,1.1288,1.1289,1.129,1.1294,1.1295,1.1282,1.1282,1.1282,1.1282,0,1.0983,1.1005,1.1015,1.105,1.1067,1.1086,1.1113,1.1128,1.1142,1.1161,1.1186,1.1211,1.1238,1.1246,1.1259,1.1275,1.1277,1.1284,1.1289,1.1289,1.1293,1.1295,1.1281,1.1281,1.1281,1.1281,0,0,1.0965,1.1016,1.1019,1.1036,1.1073,1.109,1.1109,1.1138,1.115,1.1174,1.1191,1.1222,1.123,1.1246,1.1262,1.1273,1.1279,1.1279,1.128,1.1278,1.13,1.1294,1.1295,1.1287,1.1287,1.1287,1.1298,0,1.0969,1.1007,1.1031,1.1058,1.1079,1.1102,1.1119,1.1143,1.1162,1.1182,1.1202,1.1224,1.1232,1.1242,1.1254,1.1275,1.1283,1.1275,1.1303,1.1304,1.1296,1.1297,1.1291,1.13,1.1299,1.1299,1.13,0,1.0979,1.1004,1.1034,1.107,1.108,1.1095,1.1124,1.1143,1.1171,1.1183,1.1203,1.1219,1.1241,1.1244,1.1275,1.1269,1.1282,1.1294,1.1295,1.1299,1.1302,1.1301,1.1303,1.1304,1.1302,1.1302,1.1302,0,1.0964,1.1005,1.1029,1.1043,1.1085,1.1095,1.1113,1.1141,1.1157,1.1182,1.1193,1.1219,1.1234,1.1254,1.1277,1.1277,1.1306,1.1311,1.1317,1.1317,1.1322,1.1321,1.1326,1.1329,1.1329,1.1329,1.1329,0,1.0966,1.0983,1.1023,1.1038,1.1059,1.1086,1.1106,1.1126,1.1151,1.117,1.119,1.1207,1.1237,1.1258,1.1276,1.1299,1.1305,1.1316,1.1321,1.1315,1.1313,1.1323,1.1324,1.133,1.133,1.133,1.133,0,1.0952,1.098,1.1008,1.1046,1.1056,1.107,1.1102,1.1117,1.1138,1.1162,1.1169,1.12,1.1226,1.1252,1.1285,1.1298,1.1321,1.1327,1.1312,1.1314,1.132,1.1319,1.1331,1.1334,1.1335,1.1335,1.1335,0,1.0952,1.0966,1.1007,1.1022,1.104,1.1063,1.108,1.1108,1.1125,1.1159,1.117,1.1198,1.1221,1.1261,1.1287,1.1313,1.1321,1.1323,1.1324,1.1318,1.1321,1.1321,1.1323,1.1322,1.1322,1.1322,1.1322,0,1.0949,1.0962,1.0986,1.1016,1.1037,1.1061,1.1086,1.1097,1.1129,1.1147,1.1175,1.1193,1.1229,1.1256,1.1286,1.1304,1.1319,1.1321,1.1324,1.1318,1.1309,1.1315,1.131,1.1321,1.1321,1.1321,1.1321,1.1321,1.0942,1.0957,1.0988,1.1015,1.1038,1.1061,1.1078,1.1101,1.1125,1.1158,1.1172,1.12,1.1229,1.1271,1.1289,1.1311,1.1314,1.1318,1.1319,1.132,1.1319,1.1306,1.1316,1.1316,1.1316,1.1316,1.1316,0,1.0941,1.0963,1.0987,1.1023,1.1044,1.1058,1.1086,1.1103,1.1128,1.1154,1.1178,1.121,1.1237,1.1266,1.1294,1.1307,1.1314,1.1313,1.1313,1.1317,1.1314,1.1309,1.1307,1.1307,1.1307,1.1307,1.1307,1.1307,1.0942,1.0969,1.0986,1.1024,1.1045,1.1074,1.1089,1.1111,1.1133,1.1168,1.1191,1.1211,1.1238,1.1269,1.1295,1.1303,1.1312,1.131,1.1319,1.1316,1.1317,1.1317,1.1313,1.1312,1.1312,1.1321,1.1321,1.1321]}]]